{"data":{"norad_id":54060,"epoch":"2026-05-24T21:25:57.650304Z","epoch_age_seconds":84344,"freshness":"FRESH","line1":"1 54060U 22136K   26144.89302836  .00000450  00000+0  46396-4 0  9995","line2":"2 54060  53.2125 331.6882 0001791 100.2263 259.8931 15.08837085198772","mean_motion":15.08837085,"eccentricity":0.0001791,"inclination_deg":53.2125,"raan_deg":331.6882,"arg_perigee_deg":100.2263,"mean_anomaly_deg":259.8931,"bstar":4.6396e-5,"rev_number":19877,"period_min":95.437739058488,"perigee_km":538.51330499384,"apogee_km":540.99129294073,"semimajor_km":6917.8892989673,"source":"CELESTRAK","updated_at":"2026-05-25T13:38:17.648124Z"}}